{"data":{"norad_id":40072,"intl_designator":"2014-037D","name":"SKYSAT-B","alt_names":[],"object_type":"PAYLOAD","status":"ACTIVE","operator":null,"country":"US","launch_date":"2014-07-08","launch_site_code":"TYMSC","launch_vehicle":null,"mission":null,"orbit_class":"UNKNOWN","rcs_meters":0.362,"size_class":null,"mass_kg":null,"dimensions":null,"purposes":["earth_obs"],"wikipedia_slug":null,"has_3d_model":false,"image_url":null,"decayed_at":null,"tle_current":{"epoch":"2026-05-24T20:35:56.250816Z","epoch_age_seconds":97706,"freshness":"FRESH","line1":"1 40072U 14037D   26144.85828994  .00001106  00000+0  12732-3 0  9993","line2":"2 40072  98.3825 102.4969 0005697   8.6901 351.4411 14.87955317642496","mean_motion":14.87955317,"eccentricity":0.0005697,"inclination_deg":98.3825,"raan_deg":102.4969,"arg_perigee_deg":8.6901,"mean_anomaly_deg":351.4411,"bstar":0.00012732,"rev_number":64249,"period_min":96.777099658027,"perigee_km":600.34710281947,"apogee_km":608.30292003529,"semimajor_km":6982.4620114274,"source":"CELESTRAK","updated_at":"2026-05-25T13:38:13.294354Z"}}}